TimeCET,TemperatureF,Dew PointF,Humidity,Sea Level PressureIn,VisibilityMPH,Wind Direction,Wind SpeedMPH,Gust SpeedMPH,PrecipitationIn,Events,Conditions,WindDirDegrees,DateUTC
12:00 AM,36,36,98,29.74,0,South,4.5,,,Fog,Fog,180,2012-10-30 23:00:00
12:20 AM,35.6,33.8,93,29.68,0.2,South,3.5,-,N/A,Fog,Fog,180,2012-10-30 23:20:00
12:50 AM,35.6,33.8,93,29.68,0.1,South,3.5,-,N/A,Fog,Fog,170,2012-10-30 23:50:00
1:00 AM,36,36,98,29.74,0,South,4.5,,,Fog,Fog,180,2012-10-31 00:00:00
1:20 AM,35.6,33.8,93,29.68,0.7,SSW,5.8,-,N/A,,Overcast,200,2012-10-31 00:20:00
1:50 AM,35.6,33.8,93,29.68,0.9,South,5.8,-,N/A,,Unknown,190,2012-10-31 00:50:00
2:00 AM,36,36,98,29.73,1,SSE,4.5,,,Fog,Fog,160,2012-10-31 01:00:00
2:20 AM,35.6,33.8,93,29.65,0.9,South,6.9,-,N/A,,Mist,190,2012-10-31 01:20:00
2:50 AM,35.6,33.8,93,29.65,1.1,South,5.8,-,N/A,,Overcast,180,2012-10-31 01:50:00
3:00 AM,36,36,100,29.72,1,South,6.7,,,Fog,Fog,170,2012-10-31 02:00:00
3:20 AM,35.6,33.8,93,29.65,1.7,South,5.8,-,N/A,,Mostly Cloudy,180,2012-10-31 02:20:00
3:50 AM,37.4,35.6,93,29.65,1.9,SSW,9.2,-,N/A,,Overcast,210,2012-10-31 02:50:00
4:20 AM,35.6,33.8,93,29.65,1.8,SSW,6.9,-,N/A,,Mostly Cloudy,210,2012-10-31 03:20:00
4:50 AM,35.6,33.8,93,29.65,2.2,SSW,6.9,-,N/A,,Overcast,200,2012-10-31 03:50:00
5:00 AM,36,36,99,29.71,1,South,6.7,,,Rain,Light Drizzle,180,2012-10-31 04:00:00
5:20 AM,35.6,33.8,93,29.65,-9999.0,South,4.6,-,N/A,,Overcast,180,2012-10-31 04:20:00
5:50 AM,35.6,33.8,93,29.65,0.7,SSE,3.5,-,N/A,,Overcast,160,2012-10-31 04:50:00
6:00 AM,36,35,97,29.71,2,SSE,4.5,,,Rain,Light Rain,150,2012-10-31 05:00:00
6:20 AM,35.6,32.0,87,29.65,1.4,South,4.6,-,N/A,Fog,Fog,170,2012-10-31 05:20:00
6:50 AM,35.6,33.8,93,29.65,1.1,SSE,4.6,-,N/A,,Overcast,160,2012-10-31 05:50:00
7:00 AM,35,35,100,29.72,1,SE,4.5,,,,Mist,140,2012-10-31 06:00:00
7:20 AM,35.6,33.8,93,29.65,1.6,South,3.5,-,N/A,,Mostly Cloudy,170,2012-10-31 06:20:00
7:50 AM,33.8,32.0,93,29.65,0.9,SSE,4.6,-,N/A,,Mostly Cloudy,150,2012-10-31 06:50:00
8:00 AM,35,35,98,29.73,1,SE,4.5,,,,Mist,140,2012-10-31 07:00:00
8:20 AM,35.6,33.8,93,29.68,1.4,Variable,2.3,-,N/A,,Mostly Cloudy,0,2012-10-31 07:20:00
8:50 AM,35.6,33.8,93,29.68,2.5,SSE,3.5,-,N/A,,Overcast,150,2012-10-31 07:50:00
9:00 AM,36,35,96,29.73,2,South,4.5,,,,Mist,170,2012-10-31 08:00:00
9:20 AM,37.4,33.8,87,29.68,3.7,SSE,3.5,-,N/A,,Mostly Cloudy,150,2012-10-31 08:20:00
9:50 AM,39.2,35.6,87,29.68,3.7,SSE,5.8,-,N/A,,Scattered Clouds,150,2012-10-31 08:50:00
10:20 AM,41.0,35.6,81,29.68,5.0,SSE,6.9,-,N/A,,Partly Cloudy,150,2012-10-31 09:20:00
10:50 AM,41.0,35.6,81,29.68,6.2,SSE,8.1,-,N/A,,Partly Cloudy,150,2012-10-31 09:50:00
11:00 AM,41,36,78,29.71,6,SSE,6.7,,,,Scattered Clouds,150,2012-10-31 10:00:00
11:20 AM,42.8,35.6,76,29.68,6.2,SSE,8.1,-,N/A,,Unknown,150,2012-10-31 10:20:00
11:50 AM,42.8,35.6,76,29.65,6.2,SE,8.1,-,N/A,,Partly Cloudy,130,2012-10-31 10:50:00
12:00 PM,42,36,74,29.70,6,SSE,8.9,,,,Scattered Clouds,160,2012-10-31 11:00:00
12:20 PM,42.8,35.6,76,29.65,6.2,SSE,10.4,-,N/A,,Partly Cloudy,160,2012-10-31 11:20:00
12:50 PM,44.6,35.6,71,29.65,6.2,SSE,10.4,-,N/A,,Partly Cloudy,160,2012-10-31 11:50:00
1:00 PM,43,37,73,29.68,10,SSE,8.9,,,,Partly Cloudy,160,2012-10-31 12:00:00
1:20 PM,44.6,35.6,71,29.62,6.2,SE,9.2,-,N/A,,Partly Cloudy,140,2012-10-31 12:20:00
1:50 PM,44.6,35.6,71,29.62,6.2,SE,12.7,-,N/A,,Partly Cloudy,140,2012-10-31 12:50:00
2:00 PM,45,38,68,29.65,9,South,11.2,,,,Scattered Clouds,170,2012-10-31 13:00:00
2:50 PM,46.4,37.4,71,29.59,6.2,SSE,9.2,-,N/A,,Partly Cloudy,150,2012-10-31 13:50:00
3:00 PM,46,38,66,29.62,11,SSE,11.2,,,,Scattered Clouds,160,2012-10-31 14:00:00
3:20 PM,44.6,35.6,71,29.59,-9999.0,SE,8.1,-,N/A,,Clear,140,2012-10-31 14:20:00
3:50 PM,44.6,35.6,71,29.59,-9999.0,SE,8.1,-,N/A,,Clear,130,2012-10-31 14:50:00
4:20 PM,42.8,35.6,76,29.56,-9999.0,SSE,8.1,-,N/A,,Clear,150,2012-10-31 15:20:00
4:50 PM,41.0,33.8,76,29.56,-9999.0,ESE,5.8,-,N/A,,Clear,120,2012-10-31 15:50:00
5:00 PM,43,38,76,29.58,12,SE,6.7,,,,Clear,140,2012-10-31 16:00:00
5:20 PM,41.0,33.8,76,29.56,-9999.0,SSE,5.8,-,N/A,,Clear,150,2012-10-31 16:20:00
5:50 PM,39.2,33.8,81,29.53,-9999.0,SE,3.5,-,N/A,,Clear,130,2012-10-31 16:50:00
6:00 PM,41,37,79,29.59,11,SE,8.9,,,,Clear,140,2012-10-31 17:00:00
6:20 PM,39.2,32.0,75,29.53,-9999.0,SE,4.6,-,N/A,,Clear,140,2012-10-31 17:20:00
6:50 PM,39.2,33.8,81,29.53,-9999.0,SE,3.5,-,N/A,,Clear,130,2012-10-31 17:50:00
7:00 PM,39,36,83,29.58,8,SE,8.9,,,,Clear,140,2012-10-31 18:00:00
7:20 PM,37.4,32.0,81,29.53,-9999.0,SE,4.6,-,N/A,,Clear,140,2012-10-31 18:20:00
7:50 PM,37.4,32.0,81,29.50,-9999.0,ESE,6.9,-,N/A,,Clear,120,2012-10-31 18:50:00
8:00 PM,39,35,81,29.56,7,SE,8.9,,,,Clear,130,2012-10-31 19:00:00
8:20 PM,39.2,32.0,75,29.50,5.0,SE,5.8,-,N/A,,Unknown,140,2012-10-31 19:20:00
8:50 PM,37.4,32.0,81,29.50,6.2,ESE,8.1,-,N/A,,Unknown,120,2012-10-31 19:50:00
9:00 PM,38,35,84,29.55,6,SE,11.2,,,,Clear,130,2012-10-31 20:00:00
9:20 PM,37.4,32.0,81,29.50,6.2,East,3.5,-,N/A,,Unknown,80,2012-10-31 20:20:00
9:50 PM,35.6,32.0,87,29.47,5.0,SE,4.6,-,N/A,,Unknown,140,2012-10-31 20:50:00
10:20 PM,35.6,32.0,87,29.47,3.7,SE,5.8,-,N/A,,Partly Cloudy,130,2012-10-31 21:20:00
10:50 PM,35.6,32.0,87,29.44,3.7,SE,5.8,-,N/A,,Mostly Cloudy,130,2012-10-31 21:50:00
11:00 PM,36,34,89,29.51,2,SE,8.9,,,,Mist,130,2012-10-31 22:00:00
11:20 PM,35.6,32.0,87,29.44,3.7,ESE,8.1,-,N/A,,Mostly Cloudy,110,2012-10-31 22:20:00
11:50 PM,35.6,32.0,87,29.42,3.7,SE,10.4,-,N/A,,Scattered Clouds,130,2012-10-31 22:50:00